Date String (YYYY-MM-DD hh:mm:ss) UTC,Instrument flags,absolute air pressure of the measurement (hPa),sample flow rate (lpm),inlet stack bypass flow (lpm),air temperature of the measurement (°C),ambient temperature measured by the external sensor (°C),aerosol sample conditioner tube jacket temperature (°C),OPC LED temperature (°C),internal box temperature (°C),relative humidity of the measurement (%),span deviation,mass concentration of particles derived from Lorenz-Mie calculation of OPC scattering (μg/m³),mass concentration of particles derived from Lorenz-Mie calculation of OPC scattering (μg/m³),mass concentration of particles derived from Lorenz-Mie calculation of OPC scattering (μg/m³)
DateTimeUTC,F1_M11,P_M11,Q1_M11,Q2_M11,T1_M11,T2_M11,T3_M11,T4_M11,T5_M11,U1_M11,ZSPAN_M11,X0_M11,X2_M11,X1_M11
2023-09-10 04:00:00,SystemResetWarning,0837.6,5.00,000.00,028.1,026.8,000.0,036.5,029.8,27.4,0000.7,0027.15,0010.02,0007.92
2023-09-10 04:01:00,SystemResetWarning,0837.6,5.00,000.00,028.1,027.0,000.0,036.5,029.8,27.5,0000.8,0027.50,0010.17,0008.04
2023-09-10 04:02:00,SystemResetWarning,0837.6,5.00,000.00,028.2,027.1,000.0,036.5,029.9,27.4,0001.0,0027.31,0010.34,0008.17
2023-09-10 04:03:00,SystemResetWarning,0837.6,5.00,000.00,028.2,027.2,000.0,036.5,029.9,27.6,0001.1,0027.46,0010.49,0008.28
2023-09-10 04:04:00,SystemResetWarning,0837.6,4.98,000.00,028.3,026.8,000.0,036.5,029.9,27.5,0001.2,0028.24,0010.68,0008.42
2023-09-10 04:05:00,SystemResetWarning,0837.6,5.01,000.00,028.2,024.9,000.0,036.4,029.5,27.6,0001.3,0027.19,0010.85,0008.57
2023-09-10 04:06:00,SystemResetWarning,0837.6,4.99,000.00,028.1,023.8,000.0,036.3,029.3,27.8,0001.3,0026.78,0010.90,0008.71
2023-09-10 04:07:00,SystemResetWarning,0837.6,5.01,000.00,028.0,023.8,000.0,036.3,029.2,28.0,0001.4,0028.04,0011.08,0008.88
2023-09-10 04:08:00,SystemResetWarning,0837.5,5.02,000.00,027.9,024.2,000.0,036.3,029.1,28.4,0001.5,0027.92,0011.35,0009.07
2023-09-10 04:09:00,SystemResetWarning,0837.5,5.00,000.00,027.8,024.6,000.0,036.3,029.1,28.4,0001.6,0027.61,0011.63,0009.30
2023-09-10 04:10:00,SystemResetWarning,0837.5,5.00,000.00,027.8,025.1,000.0,036.3,029.2,28.8,0001.7,0027.73,0012.04,0009.58
2023-09-10 04:11:00,SystemResetWarning,0837.5,5.00,000.00,027.8,025.5,000.0,036.3,029.3,28.9,0001.6,0029.40,0012.41,0009.87
2023-09-10 04:12:00,SystemResetWarning,0837.5,4.99,000.00,027.8,025.9,000.0,036.3,029.4,28.9,0001.6,0030.59,0012.67,0010.11
2023-09-10 04:13:00,SystemResetWarning,0837.5,4.99,000.00,027.9,026.2,000.0,036.3,029.5,29.1,0001.4,0032.43,0012.87,0010.30
2023-09-10 04:14:00,SystemResetWarning,0837.5,5.01,000.00,027.9,026.4,000.0,036.3,029.5,29.0,0001.2,0033.52,0013.04,0010.46
2023-09-10 04:15:00,SystemResetWarning,0837.5,5.00,000.00,027.9,026.6,000.0,036.3,029.6,29.0,0001.1,0033.83,0013.15,0010.58
2023-09-10 04:16:00,SystemResetWarning,0837.6,4.99,000.00,028.0,026.8,000.0,036.3,029.7,28.8,0001.1,0034.33,0013.27,0010.70
2023-09-10 04:17:00,SystemResetWarning,0837.6,5.00,000.00,028.0,027.0,000.0,036.4,029.7,28.7,0001.0,0035.38,0013.41,0010.78
2023-09-10 04:18:00,SystemResetWarning,0837.6,5.00,000.00,028.1,027.1,000.0,036.4,029.8,28.6,0001.0,0035.87,0013.48,0010.82
2023-09-10 04:19:00,SystemResetWarning,0837.6,5.00,000.00,028.1,027.2,000.0,036.4,029.9,28.5,0001.1,0036.51,0013.41,0010.86
2023-09-10 04:20:00,SystemResetWarning,0837.7,5.00,000.00,028.2,027.3,000.0,036.5,029.9,28.5,0001.0,0037.36,0013.36,0010.88
2023-09-10 04:21:00,SystemResetWarning,0837.7,5.00,000.00,028.2,027.4,000.0,036.5,030.0,28.4,0001.0,0037.72,0013.32,0010.89
2023-09-10 04:22:00,SystemResetWarning,0837.7,4.99,000.00,028.2,026.2,000.0,036.4,029.8,28.4,0001.1,0037.20,0013.23,0010.88
2023-09-10 04:23:00,SystemResetWarning,0837.6,5.01,000.00,028.2,024.9,000.0,036.4,029.6,28.5,0001.2,0036.66,0013.23,0010.89
2023-09-10 04:24:00,SystemResetWarning,0837.6,5.02,000.00,028.1,024.8,000.0,036.3,029.5,28.5,0001.4,0035.45,0013.29,0010.94
2023-09-10 04:25:00,SystemResetWarning,0837.6,5.00,000.00,028.0,025.0,000.0,036.3,029.4,28.6,0001.6,0035.46,0013.38,0011.00
2023-09-10 04:26:00,SystemResetWarning,0837.6,5.00,000.00,028.0,025.4,000.0,036.4,029.4,28.7,0001.6,0036.08,0013.50,0011.11
2023-09-10 04:27:00,SystemResetWarning,0837.6,4.99,000.00,028.0,025.7,000.0,036.4,029.5,28.7,0001.6,0035.37,0013.64,0011.19
2023-09-10 04:28:00,SystemResetWarning,0837.6,5.00,000.00,028.0,026.1,000.0,036.4,029.6,28.6,0001.6,0034.21,0013.73,0011.30
2023-09-10 04:29:00,SystemResetWarning,0837.7,5.01,000.00,028.0,026.3,000.0,036.4,029.6,28.6,0001.4,0033.76,0013.84,0011.42
2023-09-10 04:30:00,SystemResetWarning,0837.6,5.00,000.00,028.1,026.6,000.0,036.4,029.7,28.5,0001.1,0033.50,0014.02,0011.53
2023-09-10 04:31:00,SystemResetWarning,0837.6,5.00,000.00,028.1,026.8,000.0,036.4,029.8,28.5,0001.2,0033.54,0014.26,0011.69
2023-09-10 04:32:00,SystemResetWarning,0837.7,5.00,000.00,028.2,027.0,000.0,036.5,029.8,28.4,0001.3,0033.78,0014.43,0011.87
2023-09-10 04:33:00,SystemResetWarning,0837.7,5.00,000.00,028.2,027.1,000.0,036.5,029.9,28.3,0001.5,0032.88,0014.62,0012.02
2023-09-10 04:34:00,SystemResetWarning,0837.7,5.00,000.00,028.2,027.3,000.0,036.5,030.0,28.2,0001.6,0033.06,0014.77,0012.08
2023-09-10 04:35:00,SystemResetWarning,0837.7,4.99,000.00,028.3,026.7,000.0,036.5,029.9,28.2,0001.4,0032.80,0014.79,0012.12
2023-09-10 04:36:00,SystemResetWarning,0837.7,5.00,000.00,028.2,025.2,000.0,036.4,029.6,28.3,0001.3,0032.49,0014.78,0012.15
2023-09-10 04:37:00,SystemResetWarning,0837.7,5.01,000.00,028.2,024.8,000.0,036.4,029.6,28.4,0001.4,0031.98,0014.83,0012.16
2023-09-10 04:38:00,SystemResetWarning,0837.6,5.01,000.00,028.1,024.9,000.0,036.4,029.4,28.5,0001.4,0032.31,0014.83,0012.18
2023-09-10 04:39:00,SystemResetWarning,0837.6,4.99,000.00,028.0,025.3,000.0,036.4,029.4,28.6,0001.5,0032.65,0014.84,0012.18
2023-09-10 04:40:00,SystemResetWarning,0837.7,5.00,000.00,028.0,025.6,000.0,036.4,029.5,28.7,0001.7,0033.13,0014.86,0012.20
2023-09-10 04:41:00,SystemResetWarning,0837.6,5.01,000.00,028.0,026.0,000.0,036.4,029.5,28.6,0001.9,0032.51,0014.89,0012.24
2023-09-10 04:42:00,SystemResetWarning,0837.6,5.00,000.00,028.0,026.3,000.0,036.4,029.6,28.6,0001.8,0031.80,0014.92,0012.28
2023-09-10 04:43:00,SystemResetWarning,0837.6,5.00,000.00,028.1,026.5,000.0,036.4,029.7,28.6,0001.7,0031.32,0014.93,0012.25
2023-09-10 04:44:00,SystemResetWarning,0837.6,5.00,000.00,028.1,026.7,000.0,036.5,029.7,28.5,0001.7,0031.44,0015.04,0012.29
2023-09-10 04:45:00,SystemResetWarning,0837.6,4.99,000.00,028.1,026.9,000.0,036.5,029.8,28.5,0001.6,0032.36,0015.05,0012.37
2023-09-10 04:46:00,SystemResetWarning,0837.7,5.00,000.00,028.2,027.1,000.0,036.5,029.9,28.4,0001.6,0032.37,0015.15,0012.48
2023-09-10 04:47:00,SystemResetWarning,0837.7,5.01,000.00,028.2,027.2,000.0,036.5,029.9,28.3,0001.6,0032.21,0015.29,0012.59
2023-09-10 04:48:00,SystemResetWarning,0837.7,5.00,000.00,028.3,027.0,000.0,036.5,029.9,28.2,0001.5,0031.79,0015.38,0012.69
2023-09-10 04:49:00,SystemResetWarning,0837.7,4.98,000.00,028.2,025.4,000.0,036.5,029.7,28.3,0001.5,0031.45,0015.56,0012.82
2023-09-10 04:50:00,SystemResetWarning,0837.6,5.01,000.00,028.1,023.9,000.0,036.4,029.3,28.4,0001.5,0031.03,0015.66,0012.94
2023-09-10 04:51:00,SystemResetWarning,0837.6,5.01,000.00,028.1,023.7,000.0,036.3,029.3,28.6,0001.5,0031.86,0015.81,0013.02
2023-09-10 04:52:00,SystemResetWarning,0837.6,5.01,000.00,027.9,024.0,000.0,036.3,029.1,28.8,0001.5,0032.51,0015.88,0013.10
2023-09-10 04:53:00,SystemResetWarning,0837.6,4.99,000.00,027.9,024.5,000.0,036.3,029.2,28.8,0001.7,0032.57,0015.89,0013.16
2023-09-10 04:54:00,SystemResetWarning,0837.6,5.00,000.00,027.8,025.0,000.0,036.3,029.2,28.8,0001.6,0033.02,0015.97,0013.23
2023-09-10 04:55:00,SystemResetWarning,0837.7,5.00,000.00,027.8,025.4,000.0,036.3,029.3,29.1,0001.3,0032.80,0015.95,0013.28
2023-09-10 04:56:00,SystemResetWarning,0837.7,5.00,000.00,027.9,025.7,000.0,036.3,029.4,29.3,0001.4,0031.73,0016.07,0013.33
2023-09-10 04:57:00,SystemResetWarning,0837.7,5.01,000.00,027.9,026.1,000.0,036.3,029.4,29.1,0001.3,0032.78,0016.07,0013.34
2023-09-10 04:58:00,SystemResetWarning,0837.6,5.00,000.00,027.9,026.3,000.0,036.3,029.5,29.1,0001.2,0032.64,0016.08,0013.35
2023-09-10 04:59:00,SystemResetWarning,0837.7,5.00,000.00,027.9,026.5,000.0,036.3,029.6,29.2,0001.3,0033.39,0016.13,0013.39
